TimeCDT,TemperatureF,Dew PointF,Humidity,Sea Level PressureIn,VisibilityMPH,Wind Direction,Wind SpeedMPH,Gust SpeedMPH,PrecipitationIn,Events,Conditions,WindDirDegrees,DateUTC
12:53 AM,57.0,48.9,74,29.97,10.0,North,5.8,-,N/A,,Overcast,350,2013-07-28 05:53:00
1:53 AM,55.0,46.9,74,29.97,10.0,NW,6.9,-,N/A,,Overcast,320,2013-07-28 06:53:00
2:53 AM,53.1,45.0,74,29.98,10.0,NW,9.2,-,N/A,,Clear,320,2013-07-28 07:53:00
3:53 AM,50.0,45.0,83,29.97,10.0,NNW,6.9,-,N/A,,Clear,330,2013-07-28 08:53:00
4:53 AM,50.0,45.0,83,29.99,10.0,NW,8.1,-,N/A,,Clear,320,2013-07-28 09:53:00
5:53 AM,48.0,44.1,86,30.00,10.0,NW,6.9,-,N/A,,Clear,310,2013-07-28 10:53:00
6:53 AM,48.9,45.0,86,30.01,10.0,NW,5.8,-,N/A,,Clear,310,2013-07-28 11:53:00
7:53 AM,53.1,45.0,74,30.01,10.0,NW,8.1,-,N/A,,Clear,320,2013-07-28 12:53:00
8:53 AM,55.9,46.0,69,30.02,10.0,NW,10.4,-,N/A,,Clear,320,2013-07-28 13:53:00
9:41 AM,57.2,46.4,67,30.04,10.0,NW,9.2,-,N/A,,Mostly Cloudy,320,2013-07-28 14:41:00
9:53 AM,57.0,45.0,64,30.03,10.0,NW,9.2,-,N/A,,Overcast,310,2013-07-28 14:53:00
10:17 AM,60.8,46.4,59,30.04,10.0,NW,10.4,-,N/A,,Scattered Clouds,310,2013-07-28 15:17:00
10:25 AM,57.2,46.4,67,30.04,10.0,NW,10.4,-,N/A,,Mostly Cloudy,310,2013-07-28 15:25:00
10:34 AM,60.8,46.4,59,30.04,10.0,NNW,9.2,-,N/A,,Scattered Clouds,330,2013-07-28 15:34:00
10:53 AM,60.1,46.9,62,30.03,10.0,WNW,9.2,18.4,N/A,,Mostly Cloudy,290,2013-07-28 15:53:00
11:23 AM,62.6,46.4,55,30.05,10.0,NW,10.4,-,N/A,,Scattered Clouds,320,2013-07-28 16:23:00
11:35 AM,60.8,46.4,59,30.05,10.0,WNW,10.4,19.6,N/A,,Mostly Cloudy,300,2013-07-28 16:35:00
11:43 AM,62.6,46.4,55,30.05,10.0,NW,8.1,-,N/A,,Scattered Clouds,310,2013-07-28 16:43:00
11:53 AM,61.0,46.0,58,30.04,10.0,NW,10.4,-,N/A,,Mostly Cloudy,310,2013-07-28 16:53:00
12:53 PM,62.1,46.9,58,30.04,10.0,NW,10.4,-,N/A,,Overcast,320,2013-07-28 17:53:00
1:53 PM,66.0,48.9,54,30.03,10.0,NW,12.7,-,N/A,,Clear,310,2013-07-28 18:53:00
2:53 PM,66.9,48.9,52,30.02,10.0,North,9.2,17.3,N/A,,Clear,350,2013-07-28 19:53:00
3:53 PM,68.0,48.0,49,30.02,10.0,NNW,6.9,-,N/A,,Clear,340,2013-07-28 20:53:00
4:53 PM,70.0,48.0,46,30.02,10.0,Variable,3.5,-,N/A,,Clear,0,2013-07-28 21:53:00
5:53 PM,70.0,46.9,44,30.02,10.0,NNW,9.2,-,N/A,,Clear,340,2013-07-28 22:53:00
6:53 PM,70.0,48.0,46,30.03,10.0,NNW,9.2,-,N/A,,Clear,330,2013-07-28 23:53:00
7:53 PM,66.0,50.0,56,30.04,10.0,North,4.6,-,N/A,,Clear,360,2013-07-29 00:53:00
8:53 PM,60.1,51.1,72,30.05,10.0,Calm,Calm,-,N/A,,Clear,0,2013-07-29 01:53:00
9:53 PM,57.0,51.1,81,30.07,10.0,Calm,Calm,-,N/A,,Clear,0,2013-07-29 02:53:00
10:53 PM,55.0,51.1,86,30.08,10.0,Calm,Calm,-,N/A,,Clear,0,2013-07-29 03:53:00
11:53 PM,53.1,50.0,89,30.08,10.0,Calm,Calm,-,N/A,,Clear,0,2013-07-29 04:53:00